sat.trackr.live / text

‹ back to catalog

STARLINK-36680

NORAD 68721 · 2026-081Y

PAYLOAD ACTIVE UNKNOWN

§ Identity

Operator
Country
US
Launch date
2026-04-14
Launch site
AFETR
Launch vehicle
Mass (kg)
RCS (m²)

Purposes: comms

External: N2YO · Heavens-Above · Gunter

§ Orbital elements

Epoch: 2026-09-20T03:04:07.180032Z

Period
93.85 min
Inclination
53.1572°
Eccentricity
0.0001591
Mean motion
15.34405411 rev/d
Perigee alt
461.6 km
Apogee alt
463.8 km
Semi-major
6,840.8 km
B*
6.1978e-4
RAAN
207.2881°
Arg perigee
97.0439°
Mean anomaly
263.0744°
Rev number
2,456

§ Raw data

STARLINK-366801 68721U 26081Y   26263.12786088  .00020625  00000+0  61978-3 0  99982 68721  53.1572 207.2881 0001591  97.0439 263.0744 15.34405411 24566

JSON: /api/v1/satellites/68721 · /tle

For live sub-satellite position, see the globe view (requires WebGL).

§ Visibility from observer

Set your observer location to see the next 7 days of passes ≥ 10°. The values pass through the URL so the page stays shareable.

No JS? Fill the form by hand. The geolocation button needs JavaScript.